Observations for Trim Market St
| Time | AQI | Temp °C | Hum % | Pres Pa | CO μg/m³ | H₂S μg/m³ | NO μg/m³ | NO₂ μg/m³ | O₃ μg/m³ | SO₂ μg/m³ | PM1 μg/m³ | PM2.5 μg/m³ | PM10 μg/m³ |
|---|---|---|---|---|---|---|---|---|---|---|---|---|---|
| Tuesday 25 August 2026 | |||||||||||||
| 21:57 | 3 | 16.9 | 83 | 2,147,483,647 | 0.31 | 0 | 1.13 | 23.02 | 38.57 | 0 | 8.55 | 9.48 | 16.36 |
| 21:56 | 3 | 16.9 | 82 | 2,147,483,647 | 0.31 | 0 | 1.43 | 31.71 | 44.67 | 0 | 7.13 | 9.02 | 14.16 |
| 21:53 | 3 | 16.9 | 82 | 2,147,483,647 | 0.33 | 0 | 1.76 | 26.91 | 31.79 | 0 | 7.13 | 7.62 | 13.61 |
| 21:51 | 3 | 16.9 | 82 | 2,147,483,647 | 0.35 | 0 | 1.78 | 42.25 | 17.1 | 0 | 7.84 | 9.5 | 14.72 |
| 21:50 | 3 | 16.9 | 82 | 2,147,483,647 | 0.32 | 0 | 1.83 | 26.39 | 31.41 | 0 | 7.13 | 8.09 | 12.51 |
| 21:46 | 3 | 16.9 | 82 | 2,147,483,647 | 0.35 | 0 | 1.25 | 31.07 | 27.5 | 0 | 9.26 | 11.38 | 16.4 |
| 21:38 | 3 | 16.9 | 82 | 2,147,483,647 | 0.31 | 0 | 1.5 | 32.79 | 26.84 | 0 | 9.98 | 11.89 | 18.12 |
| 21:37 | 3 | 16.9 | 82 | 2,147,483,647 | 0.29 | 0 | 1.6 | 34.75 | 37.88 | 0 | 9.98 | 11.9 | 18.13 |
| 21:35 | 3 | 16.9 | 82 | 2,147,483,647 | 0.31 | 0 | 1.45 | 26.87 | 33.63 | 0 | 7.13 | 7.68 | 12 |
| 21:31 | 3 | 16.9 | 81 | 2,147,483,647 | 0.3 | 0 | 1.34 | 27.82 | 34.19 | 0 | 9.26 | 11.44 | 18.71 |
| 21:30 | 3 | 16.9 | 81 | 2,147,483,647 | 0.29 | 0 | 1.34 | 25.32 | 36.58 | 0 | 6.41 | 7.22 | 12.01 |
| 21:29 | 3 | 16.9 | 81 | 2,147,483,647 | 0.31 | 0 | 1.33 | 29.43 | 30.02 | 0 | 9.26 | 10.04 | 15.37 |
| 21:28 | 3 | 16.9 | 81 | 2,147,483,647 | 0.3 | 0 | 1.4 | 37.89 | 22.9 | 0 | 6.41 | 9.11 | 14.25 |
| 21:27 | 3 | 16.9 | 81 | 2,147,483,647 | 0.29 | 0 | 1.49 | 24.32 | 39.08 | 0 | 7.84 | 8.64 | 14.25 |
| 21:26 | 3 | 16.9 | 81 | 2,147,483,647 | 0.3 | 0 | 1.49 | 28.81 | 34.31 | 0 | 7.84 | 10.53 | 15.38 |
| 21:25 | 3 | 16.9 | 81 | 2,147,483,647 | 0.28 | 0 | 1.69 | 25.27 | 37.88 | 0 | 6.41 | 7.7 | 12.02 |
| 21:24 | 3 | 16.9 | 81 | 2,147,483,647 | 0.31 | 0 | 1.7 | 27.74 | 33.23 | 0 | 7.13 | 7.7 | 12.02 |
| 21:23 | 3 | 16.9 | 81 | 2,147,483,647 | 0.39 | 0 | 1.67 | 35.39 | 26.74 | 0 | 8.55 | 9.41 | 12.02 |
| 21:22 | 3 | 16.9 | 81 | 2,147,483,647 | 0.26 | 0 | 1.7 | 27.17 | 34.85 | 0 | 7.13 | 7.72 | 12.03 |
| 21:21 | 3 | 16.9 | 81 | 2,147,483,647 | 0.26 | 0 | 1.56 | 31.38 | 41.46 | 0 | 6.41 | 7.72 | 11.47 |